WLF1PT FGSL-FKYS

Flight info

Callsign WLF1PT
Flight time 1h 16m
Altitude 5000
Route MBO DCT DLA DCT NLY
Aircraft C208/L-SDFGR/C

Departure

Time 2026-05-05 21:56
Airport Malabo International Airport (FGSL)

Arrival

Time 2026-05-05 23:12
Airport Yaoundé Nsimalen International Airport (FKYS)
Time Latitude Longitude Altitude Speed Heading
2026-05-05 21:36 3.76214 8.71967 54 ft 0 kts 134°
2026-05-05 21:51 3.76195 8.71963 52 ft 6 kts 242°
2026-05-05 21:51 3.76250 8.71910 54 ft 16 kts 327°
2026-05-05 21:52 3.76386 8.71876 53 ft 8 kts 32°
2026-05-05 21:52 3.76450 8.71857 53 ft 4 kts 311°
2026-05-05 21:52 3.76451 8.71856 53 ft 0 kts 311°
2026-05-05 21:53 3.76479 8.71822 54 ft 8 kts 301°
2026-05-05 21:53 3.76465 8.71708 56 ft 21 kts 255°
2026-05-05 21:54 3.76446 8.71684 56 ft 0 kts 221°
2026-05-05 21:54 3.76407 8.71649 57 ft 23 kts 221°
2026-05-05 21:54 3.76135 8.71408 60 ft 80 kts 221°
2026-05-05 21:55 3.75652 8.70991 220 ft 100 kts 220°
2026-05-05 21:55 3.75278 8.70684 349 ft 106 kts 218°
2026-05-05 21:55 3.74714 8.70155 451 ft 115 kts 233°
2026-05-05 21:55 3.74263 8.69473 573 ft 119 kts 235°
2026-05-05 21:56 3.73717 8.68506 731 ft 124 kts 253°
2026-05-05 21:56 3.73959 8.67703 835 ft 129 kts 314°
2026-05-05 21:56 3.74816 8.67409 975 ft 133 kts 347°
2026-05-05 21:56 3.75731 8.67245 1104 ft 135 kts 350°
2026-05-05 21:57 3.76349 8.67160 1157 ft 136 kts 351°
2026-05-05 21:57 3.77622 8.67240 1318 ft 143 kts 31°
2026-05-05 21:57 3.78144 8.67629 1404 ft 141 kts 41°
2026-05-05 21:57 3.78834 8.68669 1558 ft 136 kts 88°
2026-05-05 21:58 3.78886 8.69292 1651 ft 135 kts 92°
2026-05-05 21:58 3.78860 8.70548 1829 ft 135 kts 97°
2026-05-05 21:58 3.78828 8.71174 1922 ft 136 kts 97°
2026-05-05 21:58 3.78583 8.72399 2078 ft 134 kts 111°
2026-05-05 21:59 3.78245 8.73258 2194 ft 134 kts 113°
2026-05-05 21:59 3.77872 8.74116 2315 ft 135 kts 114°
2026-05-05 21:59 3.77492 8.74980 2438 ft 136 kts 111°
2026-05-05 21:59 3.77561 8.75901 2555 ft 136 kts 71°
2026-05-05 22:00 3.77770 8.76505 2636 ft 136 kts 71°
2026-05-05 22:00 3.78078 8.77400 2750 ft 136 kts 71°
2026-05-05 22:00 3.78367 8.78302 2871 ft 136 kts 73°
2026-05-05 22:00 3.78700 8.79514 3031 ft 136 kts 76°
2026-05-05 22:01 3.78850 8.80123 3114 ft 136 kts 76°
2026-05-05 22:01 3.79144 8.81358 3277 ft 136 kts 77°
2026-05-05 22:01 3.79289 8.81968 3354 ft 136 kts 77°
2026-05-05 22:01 3.79518 8.82888 3473 ft 136 kts 76°
2026-05-05 22:02 3.79751 8.83804 3591 ft 136 kts 76°
2026-05-05 22:02 3.79988 8.84720 3707 ft 136 kts 76°
2026-05-05 22:02 3.80220 8.85634 3832 ft 135 kts 76°
2026-05-05 22:02 3.80446 8.86547 3950 ft 135 kts 77°
2026-05-05 22:03 3.80669 8.87459 4072 ft 135 kts 77°
2026-05-05 22:03 3.80891 8.88370 4193 ft 134 kts 77°
2026-05-05 22:03 3.81115 8.89278 4314 ft 134 kts 76°
2026-05-05 22:03 3.81343 8.90181 4435 ft 134 kts 76°
2026-05-05 22:04 3.81572 8.91087 4560 ft 134 kts 76°
2026-05-05 22:04 3.81802 8.91996 4684 ft 134 kts 77°
2026-05-05 22:04 3.82028 8.92903 4803 ft 135 kts 77°
2026-05-05 22:04 3.82253 8.93822 4873 ft 137 kts 77°
2026-05-05 22:05 3.82483 8.94758 4905 ft 139 kts 77°
2026-05-05 22:05 3.82720 8.95708 4920 ft 141 kts 76°
2026-05-05 22:05 3.82959 8.96662 4926 ft 141 kts 76°
2026-05-05 22:05 3.83201 8.97618 4930 ft 142 kts 76°
2026-05-05 22:06 3.83439 8.98572 4926 ft 147 kts 77°
2026-05-05 22:06 3.83691 8.99593 4931 ft 155 kts 77°
2026-05-05 22:06 3.83954 9.00652 4932 ft 158 kts 77°
2026-05-05 22:06 3.84223 9.01729 4930 ft 160 kts 76°
2026-05-05 22:07 3.84494 9.02814 4930 ft 161 kts 76°
2026-05-05 22:07 3.84768 9.03909 4932 ft 162 kts 76°
2026-05-05 22:07 3.85040 9.05005 4933 ft 162 kts 76°
2026-05-05 22:07 3.85313 9.06102 4932 ft 162 kts 76°
2026-05-05 22:08 3.85586 9.07199 4932 ft 162 kts 77°
2026-05-05 22:08 3.85859 9.08291 4932 ft 162 kts 76°
2026-05-05 22:08 3.86131 9.09392 4925 ft 162 kts 76°
2026-05-05 22:08 3.86402 9.10492 4925 ft 163 kts 76°
2026-05-05 22:09 3.86680 9.11593 4925 ft 163 kts 76°
2026-05-05 22:09 3.86960 9.12693 4928 ft 163 kts 76°
2026-05-05 22:09 3.87235 9.13796 4928 ft 163 kts 76°
2026-05-05 22:09 3.87506 9.14901 4925 ft 164 kts 76°
2026-05-05 22:10 3.87777 9.16008 4927 ft 164 kts 76°
2026-05-05 22:10 3.88055 9.17112 4924 ft 163 kts 76°
2026-05-05 22:10 3.88332 9.18213 4921 ft 163 kts 76°
2026-05-05 22:10 3.88606 9.19311 4923 ft 163 kts 76°
2026-05-05 22:11 3.88878 9.20413 4923 ft 163 kts 76°
2026-05-05 22:11 3.89152 9.21515 4924 ft 163 kts 76°
2026-05-05 22:11 3.89426 9.22614 4927 ft 163 kts 76°
2026-05-05 22:11 3.89702 9.23717 4929 ft 163 kts 76°
2026-05-05 22:12 3.89977 9.24819 4922 ft 164 kts 76°
2026-05-05 22:12 3.90248 9.25913 4921 ft 164 kts 76°
2026-05-05 22:12 3.90526 9.27020 4916 ft 163 kts 76°
2026-05-05 22:12 3.90800 9.28120 4916 ft 163 kts 76°
2026-05-05 22:13 3.91072 9.29221 4914 ft 163 kts 76°
2026-05-05 22:13 3.91345 9.30321 4916 ft 163 kts 76°
2026-05-05 22:13 3.91619 9.31420 4929 ft 163 kts 76°
2026-05-05 22:13 3.91895 9.32520 4929 ft 162 kts 76°
2026-05-05 22:14 3.92143 9.33619 4927 ft 162 kts 82°
2026-05-05 22:14 3.91984 9.34732 4928 ft 162 kts 101°
2026-05-05 22:14 3.91849 9.35856 4930 ft 163 kts 93°
2026-05-05 22:14 3.91837 9.36988 4931 ft 163 kts 88°
2026-05-05 22:15 3.91910 9.38117 4930 ft 163 kts 85°
2026-05-05 22:15 3.92024 9.39246 4926 ft 163 kts 83°
2026-05-05 22:15 3.92181 9.40374 4923 ft 164 kts 80°
2026-05-05 22:15 3.92392 9.41495 4922 ft 164 kts 78°
2026-05-05 22:16 3.92636 9.42608 4924 ft 164 kts 77°
2026-05-05 22:16 3.92892 9.43717 4919 ft 163 kts 77°
2026-05-05 22:16 3.93135 9.44821 4916 ft 162 kts 78°
2026-05-05 22:16 3.93364 9.45922 4918 ft 163 kts 78°
2026-05-05 22:17 3.93592 9.47051 4918 ft 163 kts 78°
2026-05-05 22:17 3.93818 9.48158 4920 ft 164 kts 78°
2026-05-05 22:17 3.94058 9.49275 4920 ft 164 kts 77°
2026-05-05 22:17 3.94304 9.50395 4918 ft 165 kts 77°
2026-05-05 22:18 3.94548 9.51518 4917 ft 165 kts 77°
2026-05-05 22:18 3.94788 9.52645 4915 ft 165 kts 78°
2026-05-05 22:18 3.95022 9.53767 4910 ft 164 kts 78°
2026-05-05 22:18 3.95251 9.54870 4910 ft 163 kts 78°
2026-05-05 22:19 3.95486 9.55982 4911 ft 163 kts 78°
2026-05-05 22:19 3.95724 9.57093 4910 ft 163 kts 77°
2026-05-05 22:19 3.95965 9.58201 4913 ft 163 kts 77°
2026-05-05 22:19 3.96208 9.59309 4912 ft 163 kts 77°
2026-05-05 22:20 3.96449 9.60414 4911 ft 163 kts 77°
2026-05-05 22:20 3.96692 9.61525 4911 ft 163 kts 77°
2026-05-05 22:20 3.96936 9.62632 4910 ft 163 kts 77°
2026-05-05 22:20 3.97178 9.63739 4911 ft 163 kts 77°
2026-05-05 22:21 3.97422 9.64846 4913 ft 163 kts 77°
2026-05-05 22:21 3.97666 9.65957 4911 ft 163 kts 77°
2026-05-05 22:21 3.97910 9.67071 4912 ft 163 kts 77°
2026-05-05 22:21 3.98153 9.68181 4911 ft 163 kts 77°
2026-05-05 22:22 3.98397 9.69289 4909 ft 163 kts 77°
2026-05-05 22:22 3.98639 9.70395 4909 ft 163 kts 77°
2026-05-05 22:22 3.98883 9.71503 4910 ft 163 kts 77°
2026-05-05 22:22 3.99122 9.72596 4913 ft 163 kts 77°
2026-05-05 22:23 3.99367 9.73720 4914 ft 163 kts 77°
2026-05-05 22:23 3.99608 9.74827 4912 ft 163 kts 78°
2026-05-05 22:23 3.99469 9.75926 4907 ft 164 kts 117°
2026-05-05 22:23 3.99040 9.76965 4913 ft 163 kts 99°
2026-05-05 22:24 3.98849 9.78081 4914 ft 163 kts 98°
2026-05-05 22:24 3.98694 9.79206 4911 ft 163 kts 96°
2026-05-05 22:24 3.98557 9.80313 4910 ft 163 kts 96°
2026-05-05 22:24 3.98410 9.81452 4912 ft 163 kts 97°
2026-05-05 22:25 3.98250 9.82575 4911 ft 163 kts 98°
2026-05-05 22:25 3.98080 9.83688 4911 ft 164 kts 98°
2026-05-05 22:25 3.97896 9.84812 4911 ft 164 kts 99°
2026-05-05 22:25 3.97699 9.85942 4912 ft 165 kts 99°
2026-05-05 22:26 3.97491 9.87068 4912 ft 165 kts 100°
2026-05-05 22:26 3.97270 9.88196 4913 ft 165 kts 101°
2026-05-05 22:26 3.97037 9.89318 4913 ft 165 kts 101°
2026-05-05 22:26 3.96791 9.90441 4913 ft 165 kts 102°
2026-05-05 22:27 3.96533 9.91559 4912 ft 165 kts 103°
2026-05-05 22:27 3.96324 9.92686 4912 ft 164 kts 92°
2026-05-05 22:27 3.96293 9.93831 4912 ft 164 kts 90°
2026-05-05 22:27 3.96265 9.94976 4913 ft 165 kts 91°
2026-05-05 22:28 3.96228 9.96124 4913 ft 165 kts 91°
2026-05-05 22:28 3.96165 9.97270 4913 ft 165 kts 94°
2026-05-05 22:28 3.96041 9.98395 4918 ft 165 kts 97°
2026-05-05 22:28 3.95874 9.99535 4919 ft 165 kts 98°
2026-05-05 22:29 3.95693 10.00669 4922 ft 165 kts 98°
2026-05-05 22:29 3.95519 10.01804 4921 ft 165 kts 98°
2026-05-05 22:29 3.95360 10.02942 4922 ft 165 kts 97°
2026-05-05 22:29 3.95213 10.04079 4922 ft 165 kts 97°
2026-05-05 22:30 3.95064 10.05217 4921 ft 165 kts 97°
2026-05-05 22:30 3.94906 10.06352 4923 ft 165 kts 97°
2026-05-05 22:30 3.94741 10.07486 4925 ft 165 kts 98°
2026-05-05 22:30 3.94575 10.08621 4925 ft 165 kts 97°
2026-05-05 22:31 3.94414 10.09755 4925 ft 165 kts 97°
2026-05-05 22:31 3.94256 10.10894 4923 ft 165 kts 97°
2026-05-05 22:31 3.94100 10.12032 4923 ft 165 kts 97°
2026-05-05 22:31 3.93944 10.13157 4933 ft 165 kts 97°
2026-05-05 22:32 3.93783 10.14294 4930 ft 165 kts 97°
2026-05-05 22:32 3.93627 10.15432 4930 ft 165 kts 97°
2026-05-05 22:32 3.93477 10.16573 4930 ft 165 kts 97°
2026-05-05 22:32 3.93334 10.17709 4930 ft 165 kts 96°
2026-05-05 22:33 3.93195 10.18850 4933 ft 165 kts 96°
2026-05-05 22:33 3.93063 10.19988 4934 ft 165 kts 96°
2026-05-05 22:33 3.92936 10.21130 4935 ft 165 kts 96°
2026-05-05 22:33 3.92814 10.22273 4933 ft 165 kts 95°
2026-05-05 22:34 3.92698 10.23415 4930 ft 165 kts 95°
2026-05-05 22:34 3.92587 10.24561 4929 ft 165 kts 95°
2026-05-05 22:34 3.92482 10.25706 4928 ft 165 kts 95°
2026-05-05 22:34 3.92383 10.26854 4928 ft 165 kts 94°
2026-05-05 22:35 3.92256 10.27994 4942 ft 165 kts 100°
2026-05-05 22:35 3.92021 10.29108 4943 ft 165 kts 102°
2026-05-05 22:35 3.91769 10.30229 4942 ft 165 kts 102°
2026-05-05 22:35 3.91515 10.31352 4942 ft 165 kts 102°
2026-05-05 22:36 3.91264 10.32477 4942 ft 166 kts 101°
2026-05-05 22:36 3.91056 10.33611 4941 ft 166 kts 99°
2026-05-05 22:36 3.90886 10.34752 4941 ft 165 kts 97°
2026-05-05 22:36 3.90738 10.35893 4941 ft 165 kts 96°
2026-05-05 22:37 3.90597 10.37030 4941 ft 165 kts 97°
2026-05-05 22:37 3.90443 10.38174 4940 ft 165 kts 97°
2026-05-05 22:37 3.90277 10.39312 4941 ft 165 kts 98°
2026-05-05 22:37 3.90104 10.40452 4937 ft 165 kts 98°
2026-05-05 22:38 3.89938 10.41590 4935 ft 165 kts 97°
2026-05-05 22:38 3.89779 10.42729 4951 ft 165 kts 97°
2026-05-05 22:38 3.89626 10.43871 4950 ft 165 kts 97°
2026-05-05 22:38 3.89472 10.45012 4950 ft 166 kts 97°
2026-05-05 22:39 3.89314 10.46137 4948 ft 166 kts 97°
2026-05-05 22:39 3.89150 10.47278 4947 ft 166 kts 97°
2026-05-05 22:39 3.88985 10.48419 4947 ft 165 kts 97°
2026-05-05 22:39 3.88824 10.49559 4947 ft 165 kts 97°
2026-05-05 22:40 3.88666 10.50697 4946 ft 165 kts 97°
2026-05-05 22:40 3.88508 10.51840 4946 ft 165 kts 97°
2026-05-05 22:40 3.88347 10.52996 4947 ft 165 kts 97°
2026-05-05 22:40 3.88186 10.54135 4947 ft 165 kts 97°
2026-05-05 22:41 3.88025 10.55260 4947 ft 165 kts 98°
2026-05-05 22:41 3.87860 10.56400 4948 ft 165 kts 98°
2026-05-05 22:41 3.87450 10.57460 4956 ft 165 kts 123°
2026-05-05 22:41 3.86907 10.58474 4960 ft 165 kts 113°
2026-05-05 22:42 3.86489 10.59542 4958 ft 165 kts 108°
2026-05-05 22:42 3.86157 10.60638 4957 ft 164 kts 104°
2026-05-05 22:42 3.85869 10.61743 4957 ft 164 kts 103°
2026-05-05 22:42 3.85622 10.62861 4956 ft 164 kts 100°
2026-05-05 22:43 3.85433 10.63987 4957 ft 164 kts 98°
2026-05-05 22:43 3.85279 10.65123 4957 ft 164 kts 97°
2026-05-05 22:43 3.85137 10.66260 4959 ft 165 kts 96°
2026-05-05 22:43 3.84990 10.67394 4960 ft 164 kts 97°
2026-05-05 22:44 3.84831 10.68528 4959 ft 165 kts 97°
2026-05-05 22:44 3.84662 10.69664 4958 ft 165 kts 98°
2026-05-05 22:44 3.84494 10.70798 4957 ft 165 kts 98°
2026-05-05 22:44 3.84330 10.71937 4957 ft 165 kts 97°
2026-05-05 22:45 3.84174 10.73074 4966 ft 164 kts 97°
2026-05-05 22:45 3.84021 10.74205 4968 ft 164 kts 97°
2026-05-05 22:45 3.83867 10.75339 4968 ft 164 kts 97°
2026-05-05 22:45 3.83709 10.76456 4968 ft 165 kts 97°
2026-05-05 22:46 3.83545 10.77594 4968 ft 164 kts 97°
2026-05-05 22:46 3.83381 10.78727 4968 ft 164 kts 97°
2026-05-05 22:46 3.83222 10.79859 4969 ft 164 kts 97°
2026-05-05 22:46 3.83066 10.80992 4971 ft 164 kts 97°
2026-05-05 22:47 3.82910 10.82126 4969 ft 164 kts 97°
2026-05-05 22:47 3.82752 10.83265 4969 ft 165 kts 97°
2026-05-05 22:47 3.82589 10.84399 4970 ft 165 kts 97°
2026-05-05 22:47 3.82482 10.85152 4969 ft 165 kts 97°
2026-05-05 22:48 3.82321 10.86286 4967 ft 164 kts 97°
2026-05-05 22:48 3.82163 10.87420 4982 ft 164 kts 97°
2026-05-05 22:48 3.81954 10.88918 4986 ft 164 kts 97°
2026-05-05 22:48 3.81847 10.89687 4986 ft 165 kts 97°
2026-05-05 22:49 3.81686 10.90822 4987 ft 165 kts 97°
2026-05-05 22:49 3.81520 10.91958 4989 ft 164 kts 97°
2026-05-05 22:49 3.81349 10.93090 4990 ft 165 kts 98°
2026-05-05 22:49 3.81179 10.94223 4990 ft 165 kts 98°
2026-05-05 22:50 3.81010 10.95355 4985 ft 165 kts 98°
2026-05-05 22:50 3.80839 10.96494 4983 ft 165 kts 98°
2026-05-05 22:50 3.80669 10.97626 4984 ft 164 kts 98°
2026-05-05 22:50 3.80496 10.98757 4985 ft 164 kts 98°
2026-05-05 22:51 3.80326 10.99886 4984 ft 164 kts 97°
2026-05-05 22:51 3.80155 11.01015 4985 ft 164 kts 98°
2026-05-05 22:51 3.79985 11.02147 4995 ft 165 kts 98°
2026-05-05 22:51 3.79816 11.03271 4996 ft 165 kts 98°
2026-05-05 22:52 3.79645 11.04407 4996 ft 165 kts 98°
2026-05-05 22:52 3.79473 11.05542 4996 ft 165 kts 98°
2026-05-05 22:52 3.79300 11.06677 4995 ft 165 kts 98°
2026-05-05 22:52 3.79128 11.07814 4991 ft 165 kts 98°
2026-05-05 22:53 3.78959 11.08948 4990 ft 165 kts 98°
2026-05-05 22:53 3.78788 11.10081 4990 ft 165 kts 98°
2026-05-05 22:53 3.78617 11.11213 4993 ft 164 kts 98°
2026-05-05 22:53 3.78446 11.12342 4992 ft 164 kts 98°
2026-05-05 22:54 3.78276 11.13473 4989 ft 164 kts 98°
2026-05-05 22:54 3.78107 11.14604 4990 ft 164 kts 98°
2026-05-05 22:54 3.77935 11.15735 4992 ft 164 kts 98°
2026-05-05 22:54 3.77763 11.16871 4994 ft 165 kts 98°
2026-05-05 22:55 3.77589 11.18003 4991 ft 165 kts 98°
2026-05-05 22:55 3.77416 11.19135 4991 ft 164 kts 98°
2026-05-05 22:55 3.77244 11.20270 4991 ft 165 kts 98°
2026-05-05 22:55 3.77073 11.21405 4990 ft 165 kts 98°
2026-05-05 22:56 3.76903 11.22537 4992 ft 165 kts 97°
2026-05-05 22:56 3.76731 11.23668 4993 ft 164 kts 98°
2026-05-05 22:56 3.76560 11.24801 4995 ft 165 kts 98°
2026-05-05 22:56 3.76389 11.25934 5000 ft 165 kts 98°
2026-05-05 22:57 3.76218 11.27069 5000 ft 165 kts 98°
2026-05-05 22:57 3.76046 11.28205 5001 ft 165 kts 98°
2026-05-05 22:57 3.75874 11.29338 5004 ft 165 kts 98°
2026-05-05 22:57 3.75703 11.30458 5008 ft 164 kts 98°
2026-05-05 22:58 3.75537 11.31587 5023 ft 165 kts 98°
2026-05-05 22:58 3.75366 11.32726 5018 ft 166 kts 98°
2026-05-05 22:58 3.75195 11.33870 5016 ft 166 kts 98°
2026-05-05 22:58 3.75023 11.35018 5015 ft 167 kts 98°
2026-05-05 22:59 3.74850 11.36167 5015 ft 167 kts 98°
2026-05-05 22:59 3.74677 11.37315 5016 ft 167 kts 98°
2026-05-05 22:59 3.74504 11.38461 5016 ft 167 kts 98°
2026-05-05 22:59 3.74357 11.39611 5016 ft 166 kts 90°
2026-05-05 23:00 3.75839 11.41138 5017 ft 166 kts 19°
2026-05-05 23:00 3.76948 11.41457 5019 ft 166 kts 11°
2026-05-05 23:00 3.78087 11.41659 5018 ft 166 kts
2026-05-05 23:01 3.79231 11.41830 5019 ft 166 kts
2026-05-05 23:01 3.80378 11.41985 5017 ft 166 kts
2026-05-05 23:01 3.81527 11.42132 5017 ft 166 kts
2026-05-05 23:01 3.82662 11.42275 5016 ft 166 kts
2026-05-05 23:02 3.83811 11.42420 5016 ft 166 kts
2026-05-05 23:02 3.84960 11.42563 5015 ft 166 kts
2026-05-05 23:02 3.86108 11.42706 5014 ft 166 kts
2026-05-05 23:02 3.87258 11.42847 5014 ft 166 kts
2026-05-05 23:03 3.88399 11.42996 5012 ft 164 kts 11°
2026-05-05 23:03 3.89326 11.43595 5004 ft 163 kts 56°
2026-05-05 23:03 3.89557 11.44681 5012 ft 162 kts 89°
2026-05-05 23:03 3.89523 11.45807 5017 ft 162 kts 92°
2026-05-05 23:04 3.89439 11.46932 5017 ft 162 kts 94°
2026-05-05 23:04 3.89330 11.48056 5015 ft 162 kts 95°
2026-05-05 23:04 3.89211 11.49178 5011 ft 162 kts 95°
2026-05-05 23:04 3.89084 11.50304 5015 ft 162 kts 96°
2026-05-05 23:05 3.88955 11.51424 5017 ft 162 kts 96°
2026-05-05 23:05 3.88824 11.52547 5016 ft 162 kts 96°
2026-05-05 23:05 3.88694 11.53667 5016 ft 162 kts 96°
2026-05-05 23:05 3.88563 11.54791 5017 ft 162 kts 96°
2026-05-05 23:06 3.88421 11.55919 4956 ft 165 kts 101°
2026-05-05 23:06 3.87793 11.56864 4850 ft 169 kts 144°
2026-05-05 23:06 3.86766 11.57430 4757 ft 169 kts 163°
2026-05-05 23:06 3.85598 11.57465 4663 ft 169 kts 182°
2026-05-05 23:07 3.84422 11.57494 4568 ft 169 kts 176°
2026-05-05 23:07 3.83298 11.57486 4502 ft 154 kts 188°
2026-05-05 23:07 3.82284 11.57255 4335 ft 150 kts 197°
2026-05-05 23:07 3.81283 11.56976 4160 ft 139 kts 196°
2026-05-05 23:08 3.80408 11.56763 3966 ft 125 kts 193°
2026-05-05 23:08 3.79585 11.56627 3815 ft 116 kts 192°
2026-05-05 23:08 3.78840 11.56508 3682 ft 100 kts 192°
2026-05-05 23:08 3.78173 11.56387 3512 ft 96 kts 193°
2026-05-05 23:09 3.77531 11.56284 3378 ft 88 kts 193°
2026-05-05 23:09 3.76949 11.56209 3247 ft 85 kts 193°
2026-05-05 23:09 3.76364 11.56173 3243 ft 79 kts 188°
2026-05-05 23:09 3.75799 11.56039 3009 ft 87 kts 200°
2026-05-05 23:10 3.75225 11.55864 2808 ft 86 kts 195°
2026-05-05 23:10 3.74640 11.55748 2658 ft 85 kts 193°
2026-05-05 23:10 3.74057 11.55651 2503 ft 83 kts 192°
2026-05-05 23:10 3.73503 11.55559 2403 ft 79 kts 191°
2026-05-05 23:11 3.72967 11.55464 2311 ft 78 kts 193°
2026-05-05 23:11 3.72441 11.55378 2263 ft 74 kts 194°
2026-05-05 23:11 3.71948 11.55289 2251 ft 71 kts 194°
2026-05-05 23:11 3.71479 11.55197 2248 ft 61 kts 195°
2026-05-05 23:12 3.71226 11.55145 2247 ft 13 kts 188°
2026-05-05 23:12 3.71201 11.55160 2248 ft 4 kts 70°
2026-05-05 23:12 3.71241 11.55157 2248 ft 4 kts 335°
2026-05-05 23:12 3.71282 11.55123 2247 ft 16 kts 299°
2026-05-05 23:13 3.71313 11.54985 2247 ft 15 kts 281°
2026-05-05 23:13 3.71341 11.54937 2247 ft 8 kts 331°
2026-05-05 23:13 3.71447 11.54947 2248 ft 24 kts 11°
2026-05-05 23:13 3.71598 11.54951 2248 ft 14 kts 339°
2026-05-05 23:14 3.71673 11.54917 2249 ft 15 kts 321°
2026-05-05 23:14 3.71682 11.54886 2249 ft 0 kts 225°
2026-05-05 23:14 3.71677 11.54881 2249 ft 0 kts 229°